Regional Weather Roundup
Issued by NWS

Home | Current Version | Previous Version | Graphics & Text | Print | Product List | Glossary Off
Versions: 1 2 3 4 5 6 7 8 9 10 11 12 13 14 15 16 17 18 19 20 21 22 23 24 25 26 27 28 29 30 31 32 33 34 35 36 37 38 39 40 41 42 43 44 45 46 47 48 49 50

000
ASUS43 KTOP 230208
RWRKS

WEATHER ROUNDUP FOR KANSAS
NATIONAL WEATHER SERVICE GOODLAND KS
800 PM CST WED FEB 22 2017

NOTE:  "FAIR" INDICATES FEW OR NO CLOUDS BELOW 12,000 FEET WITH NO
SIGNIFICANT WEATHER AND/OR OBSTRUCTIONS TO VISIBILITY.

KSZ001>006-013>018-027>032-041>047-230300-
NORTHWEST KANSAS

CITY           SKY/WX    TMP DP  RH WIND       PRES   REMARKS
GOODLAND       CLEAR     43  21  41 E7        29.72F
HAYS             N/A     53  30  41 CALM      29.71R
HILL CITY      CLEAR     51  25  36 NE12      29.71F
RUSSELL        CLEAR     55  30  38 NE7       29.68F
$$

KSZ061>065-074>080-084>089-230300-
SOUTHWEST KANSAS

CITY           SKY/WX    TMP DP  RH WIND       PRES   REMARKS
DODGE CITY     PTCLDY    54  26  34 E8        29.69F
ELKHART          N/A     63  24  22 MISG        N/A
GARDEN CITY    CLOUDY    55  24  30 E9        29.69F
GREAT BEND     CLEAR     54  32  43 E5        29.71S
LIBERAL        PTCLDY    63  23  22 SE15      29.69F
PRATT          CLOUDY    59  31  34 NE9       29.70F
$$

KSZ066>073-081>083-090>101-230300-
SOUTHEAST KANSAS

CITY           SKY/WX    TMP DP  RH WIND       PRES   REMARKS
CHANUTE        CLEAR     60  41  49 S7        29.69R
COFFEYVILLE    CLEAR     63  44  50 S7        29.69S
HUTCHINSON     CLEAR     62  32  32 N8        29.70S
MEDICINE LODGE   N/A     64  36  35 E5        29.68F
NEWTON         CLEAR     64  40  41 N6        29.72R
PARSONS        PTCLDY    66  43  43 S7        29.69F
WICHITA INTL   PTCLDY    58  47  66 S3        29.69S
WICHITA JABRA  CLEAR     61  45  55 CALM      29.70R
WICHITA MCCONL CLEAR     62  44  53 SW6       29.69S
WINFIELD       CLEAR     54  46  74 CALM      29.70R
$$

KSZ007>012-019>026-033>040-048>060-102>105-230300-
NORTHEAST KANSAS

CITY           SKY/WX    TMP DP  RH WIND       PRES   REMARKS
CONCORDIA      PTCLDY    59  29  31 N7        29.71R
EMPORIA        PTCLDY    64  37  36 W5        29.69R
LAWRENCE       PTCLDY    60  35  39 NW6       29.67R
MANHATTAN      MOCLDY    55  39  54 SW3       29.69R
MARYSVILLE     CLOUDY    54  34  47 N9        29.71R
OLATHE IND     MOCLDY    61  36  39 W3        29.68R
OLATHE EXE     MOCLDY    61  36  39 CALM      29.67R
SALINA         PTCLDY    57  33  40 W5        29.70S
TOPEKA BILLARD PTCLDY    56  41  57 CALM      29.67R
TOPEKA FORBES  CLEAR     55  39  54 CALM      29.68R
$$




USA.gov is the U.S. government's official web portal to all federal, state and local government web resources and services.